Temperature
17 16 16 16 16 16 16 16 16 16 17 17 17 17 17 17 17 17 17 17 17 17 17 17 17 18 18 18 18 18 18 18 18 18 18 18 18 18 18 18 18 18 18
17 17 16 16 16 16 16 16 16 16 16 16 16 17 17 17 17 17 17 17 17 17 17 17 17 17 17 17 18 18 18 18 18 18 18 18 18 18 18 18 18 18 18
17 17 16 16 16 16 16 16 16 16 16 16 16 16 16 16 16 16 16 16 17 17 17 17 17 17 17 17 17 17 17 18 18 18 18 18 18 18 18 18 18 18 18
17 17 16 16 16 16 16 16 16 16 16 16 16 16 16 16 16 16 16 16 16 17 16 17 17 17 17 17 17 17 17 17 17 17 18 18 18 18 18 18 18 18 18
17 17 16 16 16 16 16 16 16 16 16 16 16 16 16 16 16 16 16 16 16 16 16 16 16 17 17 17 17 17 17 17 17 17 17 18 18 18 18 18 18 17 17
17 17 16 16 16 16 16 16 16 16 16 16 16 16 16 16 16 16 16 16 16 16 16 16 16 16 17 17 17 17 17 17 17 17 17 17 17 17 17 17 17 17 17
17 17 16 16 16 16 16 16 16 16 16 16 16 16 16 16 16 16 16 16 16 16 16 16 16 16 16 16 16 17 17 17 17 17 17 17 17 17 17 17 17 17 17
17 17 16 16 16 16 16 16 15 15 16 16 16 15 15 15 16 16 16 16 16 16 16 16 16 16 16 16 16 16 16 17 17 17 17 17 17 17 17 17 17 17 17
17 17 16 16 16 16 16 16 15 15 16 16 16 15 15 15 15 16 16 16 16 16 16 16 16 16 16 16 16 16 16 16 17 17 17 17 17 17 17 17 17 17 17
17 17 16 16 16 16 16 16 16 16 16 15 16 15 15 15 15 15 15 16 16 16 16 16 16 16 16 16 16 16 16 16 16 16 16 16 16 17 17 17 17 17 17
17 17 16 16 16 16 16 16 16 16 16 16 15 15 15 15 15 15 15 15 16 16 16 16 16 16 16 16 16 16 16 16 16 16 16 16 16 16 16 17 17 17 17
17 17 17 16 16 16 16 16 16 16 16 16 16 16 15 15 15 15 15 15 15 15 15 16 16 16 16 16 16 16 16 16 16 16 16 16 16 16 16 16 16 16 16
17 17 17 16 16 16 16 16 16 16 16 16 16 16 16 16 16 16 16 15 15 15 15 15 16 16 16 16 16 16 16 16 16 16 16 16 16 16 16 16 16 16 16
17 17 17 17 16 16 16 16 16 16 16 16 16 16 16 16 16 16 16 15 15 15 15 15 15 15 15 15 16 16 16 16 15 15 15 15 15 16 16 16 16 16 16
17 17 17 17 16 16 16 16 16 16 16 16 16 16 16 16 16 16 16 15 15 15 15 15 15 15 15 15 15 15 15 15 15 15 15 15 15 15 15 15 16 16 16
17 17 17 17 17 16 16 16 16 16 16 16 16 16 16 16 16 16 16 16 15 15 15 15 15 15 15 15 15 15 15 15 15 15 15 15 15 15 15 15 15 15 15
18 17 17 17 17 16 16 16 16 16 16 16 16 16 16 16 16 16 16 15 15 15 15 15 15 15 15 15 15 15 15 15 15 15 15 15 15 15 15 15 15 15 15
18 17 17 17 17 16 16 16 16 16 16 16 16 16 16 16 16 16 16 15 15 15 15 15 15 15 15 15 15 14 14 14 14 14 14 14 15 15 15 15 15 14 14
17 17 17 17 17 16 16 16 16 16 16 16 16 16 16 16 16 16 15 15 15 15 15 15 15 15 15 14 14 14 14 14 14 14 14 14 14 14 14 14 14 14 14
17 17 17 17 17 16 16 16 16 16 16 16 16 16 15 15 15 15 15 15 15 15 15 15 15 15 15 14 14 14 14 14 14 14 14 14 14 14 14 14 14 14 14
17 17 17 17 16 16 16 16 16 16 16 16 15 15 15 15 15 15 15 15 15 15 15 15 15 15 14 14 14 14 14 14 14 14 14 14 14 14 14 14 14 14 14
17 17 17 17 16 16 16 16 16 16 16 16 15 15 15 15 15 15 15 15 15 15 15 15 15 14 14 14 14 14 14 14 14 14 14 14 14 14 14 14 14 14 14
17 17 17 17 16 16 16 16 16 16 16 16 15 15 15 15 15 15 15 15 15 15 15 15 14 14 14 14 14 14 14 14 14 13 13 13 13 14 14 14 14 14 14
17 17 17 17 16 16 16 16 16 16 16 16 15 15 15 15 15 15 15 15 15 15 15 14 14 14 14 14 14 14 14 14 14 13 13 13 13 13 13 13 13 13 13
17 17 17 17 16 16 16 16 16 16 16 16 15 15 15 15 15 15 15 15 15 15 15 14 14 14 14 14 14 14 14 14 14 14 13 13 13 13 13 13 13 13 13
17 17 17 17 16 16 16 16 16 16 16 16 16 15 15 15 15 15 15 15 15 15 15 14 14 14 14 14 14 14 14 14 14 14 13 13 13 13 13 13 13 13 13
Wind_Speed
2 3 1 5 6 7 8 8 9 9 9 10 10 10 10 10 10 10 10 10 10 10 10 10 10 10 10 10 9 9 9 9 8 8 8 7 7 7 7 7 7 6 7
1 1 3 5 6 6 7 8 9 9 9 9 9 9 10 10 10 10 10 10 10 10 10 10 10 10 9 9 9 9 8 8 8 8 8 8 7 7 7 6 6 6 6
2 1 3 5 6 6 6 8 8 9 9 9 9 10 10 10 10 10 9 9 10 10 10 10 10 9 9 9 9 9 9 9 8 8 8 7 6 7 7 6 6 7 6
2 2 3 5 6 6 7 7 8 8 9 9 9 9 9 10 10 9 9 9 10 10 9 9 9 9 9 9 9 9 9 9 9 8 7 6 6 7 7 6 6 6 7
3 3 3 5 6 7 7 7 8 8 8 8 8 9 9 9 9 9 9 9 9 9 9 9 9 9 9 9 9 9 9 9 8 8 7 7 6 6 6 6 6 7 7
2 2 2 5 5 6 7 7 7 7 7 7 7 8 8 8 8 8 9 9 9 9 9 9 9 9 9 9 9 9 9 9 9 8 7 7 6 6 6 6 7 7 6
1 1 2 4 5 5 6 7 7 7 7 7 7 8 8 8 8 9 9 9 8 8 8 9 9 9 9 9 10 10 9 10 9 8 7 6 6 7 8 7 7 7 6
1 1 1 3 4 5 5 6 6 6 6 6 6 7 7 7 7 8 8 9 9 8 8 9 9 9 9 10 10 10 10 9 8 7 7 6 7 8 9 8 7 7 6
2 2 2 3 4 5 5 5 5 5 5 5 6 6 6 6 6 7 7 7 8 8 8 9 9 10 10 10 10 10 10 10 8 7 6 6 7 8 8 8 7 7 7
2 2 2 3 4 4 4 4 4 4 5 5 5 5 6 6 6 6 6 6 7 8 9 10 10 10 10 10 10 11 11 10 8 7 6 6 8 8 8 8 8 8 7
0 1 1 1 2 3 3 4 5 5 6 6 6 6 6 7 6 5 6 7 7 8 9 10 10 11 11 11 11 11 10 9 8 7 6 8 9 8 8 8 8 8 8
2 1 1 0 1 2 3 4 5 5 6 6 5 5 5 6 6 6 7 8 9 9 10 11 11 11 11 10 10 10 9 9 8 7 8 10 10 9 9 8 8 8 9
3 2 2 1 0 1 2 3 4 4 5 5 5 4 5 6 7 8 8 8 9 10 10 10 11 10 10 9 9 9 9 9 8 8 9 11 10 10 10 9 8 8 9
2 2 2 2 1 1 2 2 3 3 4 4 4 4 4 4 5 5 6 6 7 7 7 8 8 9 10 10 9 9 9 9 9 9 10 11 11 10 10 10 9 8 9
2 2 2 2 2 2 2 2 3 3 3 3 4 3 4 4 3 4 4 5 6 6 6 6 7 7 7 8 9 9 8 9 9 10 10 12 12 12 11 10 10 9 9
3 2 2 3 3 3 2 2 2 3 3 3 3 3 4 4 3 4 4 4 5 6 7 7 6 6 6 7 7 8 8 9 10 10 10 11 12 13 13 12 11 11 11
3 3 3 3 3 3 3 2 3 3 4 4 3 4 4 4 4 4 4 3 4 6 8 8 7 7 6 6 7 7 7 8 9 10 10 11 11 12 14 13 12 12 11
4 4 3 3 4 4 3 3 3 4 5 4 4 4 5 5 6 6 4 3 5 6 6 5 4 5 6 5 5 5 6 7 8 9 10 11 11 11 12 14 13 12 12
4 4 4 4 4 4 4 4 5 5 5 4 4 4 4 5 6 6 4 4 6 6 4 4 4 4 5 5 5 5 5 6 6 8 9 10 11 11 11 12 13 13 12
4 4 4 4 4 4 4 4 3 4 4 5 4 4 5 5 6 7 5 5 5 4 4 4 5 4 4 4 5 6 5 5 6 7 7 8 9 10 11 11 11 11 12
4 4 4 4 3 3 3 2 2 2 2 2 4 5 5 5 6 6 5 5 4 4 4 4 4 5 3 2 4 4 4 5 5 5 6 6 7 9 10 10 10 10 10
4 4 4 4 3 3 2 2 2 2 1 1 3 5 5 5 4 4 5 4 4 4 4 4 3 3 2 2 3 3 3 4 4 5 4 5 6 7 8 9 9 9 9
3 4 4 3 3 3 3 3 3 3 3 3 3 2 4 4 4 5 5 5 4 3 3 2 3 3 2 2 2 3 2 1 2 3 4 4 5 5 5 7 8 9 8
4 3 3 3 3 3 3 4 4 3 2 0 0 1 3 5 4 5 5 5 4 3 3 2 2 2 3 1 1 2 2 3 2 1 3 4 4 4 4 5 6 7 8
4 3 3 3 3 3 3 4 4 3 1 1 1 2 3 3 4 4 4 4 4 3 2 2 2 2 2 2 2 1 2 2 2 2 1 3 3 3 3 4 5 6 7
3 3 3 3 2 2 3 4 4 4 3 2 2 2 1 1 2 3 4 4 3 3 2 2 2 3 2 2 2 2 2 2 1 2 1 1 2 3 3 3 4 5 6
Wind_Direction
284 285 66 84 80 78 74 73 71 71 74 75 76 76 76 78 83 83 84 86 84 84 84 84 86 87 84 82 81 81 79 78 79 83 84 80 79 83 85 90 87 81 88
199 267 107 93 89 84 81 78 74 72 74 72 73 73 74 75 78 81 84 85 84 82 80 78 79 83 82 81 80 80 78 78 77 76 75 70 71 79 85 89 93 91 88
119 92 100 99 91 88 84 81 77 75 75 75 73 73 72 71 74 75 79 81 82 81 79 76 75 77 77 79 79 78 77 76 75 73 65 55 62 75 84 85 88 92 90
129 101 103 102 92 88 84 83 81 79 78 78 77 73 72 69 69 73 79 80 81 79 79 77 73 72 72 73 75 77 78 74 72 68 57 47 54 68 77 83 88 87 86
112 97 112 103 91 86 85 87 85 81 79 79 77 74 72 70 66 70 76 80 79 77 75 74 73 73 70 70 70 72 75 73 70 62 55 49 49 61 66 75 81 86 80
111 102 105 101 90 84 84 84 88 83 82 78 77 78 73 70 63 71 72 73 74 74 70 68 69 70 70 70 70 72 71 72 66 60 54 50 48 56 62 67 78 83 76
130 107 110 104 93 86 85 85 84 81 78 78 78 79 75 69 66 72 69 68 68 72 72 70 70 71 69 69 70 72 74 76 67 59 51 46 50 57 61 66 77 79 73
120 74 71 97 92 87 88 84 81 79 78 78 75 74 71 66 65 64 63 63 64 69 72 72 72 73 72 69 68 70 74 72 64 57 48 43 54 61 61 63 70 72 67
53 50 36 35 43 57 67 73 75 73 72 72 71 69 69 64 59 61 62 64 65 68 71 72 74 73 75 72 70 71 70 65 59 50 47 45 57 61 59 59 60 58 56
52 40 32 27 28 30 27 46 62 65 68 67 62 57 55 48 44 50 49 60 68 71 72 73 73 72 74 73 72 69 65 56 49 46 41 50 57 59 60 57 56 54 55
94 348 5 16 15 20 16 32 37 42 49 49 45 44 45 40 37 39 46 59 67 71 71 73 71 70 71 68 70 67 58 50 45 41 44 54 53 56 60 58 55 55 56
216 243 252 325 353 7 19 32 30 36 42 44 43 45 47 47 46 48 50 55 60 66 67 68 70 67 65 59 59 59 52 48 45 40 50 51 46 52 56 55 54 55 56
204 214 217 195 358 24 19 24 27 34 38 41 43 47 56 58 54 54 50 48 52 60 60 61 62 61 61 58 56 55 54 52 46 43 46 50 47 48 53 52 54 56 53
174 205 201 157 116 52 47 34 36 40 40 43 41 49 66 63 58 55 53 51 56 62 66 65 66 65 63 59 58 58 56 54 47 41 41 47 47 45 47 48 52 56 53
160 179 174 140 123 90 71 52 60 55 57 52 50 60 80 82 74 68 62 60 62 69 74 73 72 69 66 60 58 58 56 52 46 42 37 42 45 43 44 47 51 54 53
160 165 151 134 125 107 91 77 61 60 65 64 59 72 90 99 96 88 76 70 66 72 80 80 78 74 68 66 58 55 53 52 47 43 39 38 41 43 43 48 53 55 53
157 150 147 138 114 108 100 81 67 60 69 63 59 76 91 101 105 101 89 80 76 84 85 81 75 72 69 65 56 51 51 50 47 42 40 37 35 38 41 47 53 54 54
135 136 144 138 123 115 99 84 70 67 69 62 65 78 90 105 112 103 93 85 90 88 87 83 73 74 66 62 55 44 44 45 43 43 44 40 37 34 35 43 50 51 52
138 134 127 116 115 110 98 86 75 70 63 55 63 70 87 105 111 106 98 94 97 90 82 88 73 83 82 72 67 52 40 41 38 43 41 39 38 37 36 37 41 45 47
127 121 116 105 98 99 90 78 66 57 47 48 54 65 87 99 107 106 99 95 98 92 83 87 87 76 83 81 75 58 41 39 41 38 33 35 37 37 36 36 35 34 40
124 122 123 120 115 111 95 92 84 63 22 30 42 59 77 90 104 105 102 96 97 99 107 109 104 88 71 69 73 47 27 34 40 33 29 32 30 30 35 35 34 34 34
144 137 133 135 136 137 129 120 115 111 80 48 39 50 59 79 98 112 109 107 104 105 99 100 106 101 68 48 85 79 27 6 9 23 22 30 24 27 31 31 35 35 34
163 165 158 154 145 137 129 105 82 64 51 37 29 26 33 66 88 103 114 112 109 115 122 119 121 120 113 45 64 120 122 211 329 351 10 19 16 22 21 26 31 33 34
189 174 151 142 137 136 133 129 128 124 119 158 110 51 46 55 68 92 108 111 106 108 118 133 128 120 126 113 56 58 108 148 136 353 343 356 10 18 11 19 19 23 28
174 159 150 136 135 136 138 143 136 130 137 106 78 73 55 45 57 76 97 104 104 105 114 111 107 108 121 136 135 116 84 69 92 129 328 333 350 351 1 6 10 10 14
154 144 143 139 144 146 147 151 153 155 151 133 119 103 67 36 36 55 86 96 102 100 105 109 109 107 106 108 114 124 142 141 154 138 167 285 326 322 339 2 9 1 3
Height
1532 1531 1530 1530 1530 1530 1530 1530 1530 1529 1529 1529 1529 1529 1529 1529 1528 1528 1529 1529 1529 1529 1530 1530 1531 1531 1532 1532 1532 1532 1533 1533 1533 1534 1534 1534 1534 1534 1535 1535 1535 1535 1536
1532 1532 1531 1531 1531 1531 1531 1531 1531 1531 1530 1530 1530 1530 1530 1530 1530 1530 1530 1530 1530 1531 1531 1532 1532 1532 1533 1533 1534 1534 1534 1534 1534 1535 1535 1535 1535 1535 1535 1536 1536 1536 1536
1533 1533 1532 1532 1532 1532 1532 1532 1532 1532 1532 1531 1531 1531 1531 1531 1531 1531 1532 1532 1532 1532 1532 1533 1533 1534 1534 1534 1535 1535 1535 1536 1536 1536 1536 1536 1536 1536 1536 1537 1537 1537 1537
1534 1534 1533 1533 1533 1533 1533 1533 1533 1533 1533 1533 1533 1533 1533 1533 1533 1533 1533 1533 1533 1534 1534 1534 1534 1535 1535 1536 1536 1536 1537 1537 1537 1537 1537 1537 1537 1538 1538 1538 1538 1538 1539
1535 1535 1535 1535 1535 1535 1535 1534 1534 1534 1534 1534 1534 1534 1534 1534 1534 1534 1534 1535 1535 1535 1535 1535 1536 1536 1537 1537 1537 1537 1538 1538 1538 1538 1538 1539 1539 1539 1539 1539 1539 1539 1539
1537 1536 1536 1536 1536 1536 1536 1536 1536 1536 1536 1536 1535 1535 1535 1535 1535 1535 1536 1536 1536 1536 1536 1537 1537 1538 1538 1538 1538 1538 1539 1539 1539 1539 1539 1540 1540 1540 1539 1539 1539 1539 1540
1538 1538 1538 1538 1538 1538 1538 1538 1538 1538 1537 1537 1537 1537 1537 1537 1537 1536 1537 1537 1537 1537 1538 1538 1539 1539 1539 1539 1540 1540 1540 1540 1540 1540 1540 1540 1540 1541 1540 1540 1540 1540 1540
1540 1540 1540 1540 1540 1540 1540 1540 1540 1540 1539 1539 1539 1539 1539 1538 1538 1538 1538 1538 1539 1539 1539 1540 1540 1540 1540 1541 1541 1541 1541 1541 1541 1541 1541 1541 1541 1541 1541 1541 1541 1541 1541
1542 1542 1542 1542 1542 1542 1542 1542 1542 1542 1541 1541 1541 1541 1540 1540 1540 1540 1540 1540 1540 1540 1541 1541 1541 1541 1542 1542 1542 1542 1542 1542 1542 1542 1542 1542 1542 1542 1542 1542 1542 1542 1541
1544 1544 1544 1544 1544 1544 1544 1544 1544 1544 1543 1543 1543 1543 1542 1542 1542 1542 1541 1542 1541 1542 1542 1542 1542 1543 1543 1543 1543 1543 1544 1544 1544 1544 1543 1543 1543 1543 1542 1542 1542 1542 1542
1545 1545 1546 1546 1546 1546 1546 1546 1546 1545 1545 1545 1545 1545 1544 1544 1543 1543 1543 1543 1543 1543 1544 1544 1544 1544 1544 1544 1545 1545 1545 1545 1545 1545 1545 1544 1544 1543 1543 1543 1543 1543 1542
1546 1547 1547 1547 1547 1547 1547 1547 1547 1547 1547 1547 1547 1546 1546 1546 1545 1545 1545 1545 1545 1545 1545 1545 1545 1545 1545 1546 1546 1546 1546 1546 1546 1546 1546 1545 1545 1544 1544 1543 1543 1543 1543
1547 1548 1548 1549 1549 1549 1549 1549 1549 1549 1549 1549 1549 1548 1548 1548 1547 1547 1547 1547 1547 1547 1547 1547 1547 1547 1547 1547 1548 1547 1548 1547 1547 1547 1547 1546 1545 1545 1544 1544 1544 1543 1543
1548 1548 1549 1550 1550 1550 1550 1550 1550 1550 1550 1550 1550 1550 1550 1550 1549 1549 1549 1548 1548 1548 1549 1548 1548 1548 1548 1549 1549 1549 1549 1549 1549 1548 1547 1547 1546 1546 1545 1545 1544 1544 1543
1548 1549 1550 1551 1551 1551 1551 1552 1552 1552 1552 1552 1552 1552 1552 1552 1551 1551 1551 1551 1550 1550 1550 1550 1550 1550 1550 1550 1550 1550 1550 1550 1550 1549 1548 1548 1547 1546 1546 1545 1545 1544 1544
1549 1550 1551 1552 1552 1552 1553 1553 1553 1553 1553 1553 1553 1553 1553 1553 1553 1553 1552 1552 1552 1552 1552 1552 1552 1551 1551 1551 1551 1552 1551 1551 1551 1550 1549 1549 1548 1547 1547 1546 1545 1544 1544
1550 1551 1552 1552 1553 1553 1554 1554 1554 1554 1555 1555 1555 1555 1555 1555 1555 1554 1554 1554 1554 1554 1554 1553 1553 1553 1553 1553 1553 1553 1552 1552 1552 1551 1551 1550 1549 1548 1548 1547 1546 1545 1545
1550 1551 1552 1553 1553 1554 1554 1555 1555 1555 1556 1556 1556 1556 1556 1556 1556 1556 1556 1555 1555 1555 1555 1555 1555 1554 1554 1554 1554 1554 1554 1553 1553 1553 1552 1551 1550 1549 1548 1548 1547 1546 1546
1551 1552 1553 1553 1554 1555 1555 1556 1556 1556 1556 1557 1557 1557 1557 1557 1557 1557 1557 1557 1556 1556 1556 1556 1556 1556 1555 1555 1555 1555 1555 1554 1554 1554 1553 1552 1552 1551 1550 1549 1548 1547 1547
1552 1553 1553 1554 1555 1555 1556 1556 1557 1557 1557 1557 1558 1558 1558 1558 1558 1558 1558 1558 1558 1557 1557 1557 1557 1557 1557 1557 1556 1556 1556 1556 1556 1555 1555 1554 1553 1552 1551 1550 1549 1548 1548
1551 1552 1553 1554 1555 1556 1557 1557 1557 1557 1558 1558 1558 1559 1559 1559 1559 1559 1559 1559 1559 1559 1558 1558 1558 1558 1558 1558 1558 1558 1558 1558 1557 1557 1556 1555 1555 1554 1552 1551 1550 1549 1548
1551 1552 1553 1554 1555 1556 1557 1557 1558 1558 1558 1559 1559 1559 1560 1560 1560 1560 1560 1560 1560 1560 1560 1559 1559 1559 1559 1560 1560 1559 1559 1561 1559 1559 1558 1557 1556 1555 1554 1552 1552 1551 1550
1550 1552 1553 1554 1555 1556 1557 1558 1558 1558 1559 1559 1560 1560 1560 1561 1561 1561 1561 1561 1561 1561 1561 1560 1561 1560 1560 1561 1561 1561 1560 1560 1560 1560 1559 1558 1557 1556 1555 1554 1553 1552 1551
1550 1552 1553 1554 1555 1556 1557 1558 1558 1558 1559 1559 1560 1560 1561 1561 1561 1562 1562 1562 1562 1562 1562 1562 1562 1562 1562 1561 1561 1561 1561 1561 1561 1560 1560 1559 1558 1557 1556 1555 1554 1553 1552
1550 1552 1553 1554 1555 1556 1557 1558 1558 1559 1559 1560 1560 1561 1561 1562 1562 1562 1562 1562 1562 1562 1562 1562 1562 1562 1562 1562 1562 1561 1561 1561 1561 1560 1560 1560 1559 1558 1557 1556 1555 1554 1553
1550 1551 1553 1554 1555 1556 1557 1557 1558 1559 1559 1560 1561 1561 1562 1562 1562 1562 1562 1562 1563 1562 1562 1562 1563 1562 1562 1562 1562 1562 1561 1561 1561 1560 1560 1559 1559 1559 1558 1557 1556 1555 1554